CW8659 Weather Reports


time (UTC)temp
F
wind
direction
speed
knots
gust
knots
rain 1hr
in
rain 24hr
in
rain mn
in
humidity
%
barometer
mb
20260510054830 52 65 0.0 0.0 0.00 0.00 0.00 94 1010.3
20260510054336 52 193 0.9 0.0 0.00 0.00 0.00 94 1010.4
20260510053824 52 202 0.9 0.0 0.00 0.00 0.00 94 1010.4
20260510053329 52 180 0.0 0.0 0.00 0.00 0.00 94 1010.4
20260510052834 52 254 0.0 0.0 0.00 0.00 0.00 94 1010.4
20260510052339 51 203 0.0 0.0 0.00 0.00 0.00 94 1010.3
20260510051839 51 185 0.0 0.0 0.00 0.00 0.00 94 1010.3
20260510051340 51 184 0.0 0.0 0.00 0.00 0.00 94 1010.3
20260510050822 51 184 0.0 0.0 0.00 0.00 0.00 95 1010.3
20260510050326 51 184 0.0 0.0 0.00 0.00 0.00 94 1010.1
20260510045831 50 184 0.0 0.0 0.00 0.00 0.00 95 1010.2
20260510045333 50 183 0.0 0.0 0.00 0.00 0.00 94 1010.2
20260510044842 49 184 0.0 0.0 0.00 0.00 0.00 95 1010.1
20260510044344 49 183 0.0 0.0 0.00 0.00 0.00 94 1010.2
20260510043829 49 183 0.0 0.0 0.00 0.00 0.00 94 1010.0
20260510043328 48 183 0.0 0.0 0.00 0.00 0.00 94 1010.0
20260510042831 47 180 0.0 0.0 0.00 0.00 0.00 94 1009.9
20260510042322 47 180 0.0 0.0 0.00 0.00 0.00 94 1010.0
20260510041824 47 179 0.0 0.0 0.00 0.00 0.00 94 1010.0
20260510041329 46 179 0.0 0.0 0.00 0.00 0.00 94 1009.9
20260510040834 46 179 0.0 0.0 0.00 0.00 0.00 94 1010.0
20260510040329 46 180 0.0 0.0 0.00 0.00 0.00 94 1009.9
20260510035835 46 180 0.0 0.0 0.00 0.00 0.33 94 1010.1
20260510035337 45 179 0.0 0.0 0.00 0.00 0.33 94 1010.0
20260510034818 45 180 0.0 0.0 0.00 0.00 0.33 94 1010.0
20260510034324 45 179 0.0 0.0 0.00 0.00 0.33 94 1009.8
20260510033830 45 180 0.0 0.0 0.00 0.00 0.33 94 1009.8
20260510033332 44 179 0.0 0.0 0.00 0.00 0.33 93 1009.7
20260510032839 44 180 0.0 0.0 0.00 0.00 0.33 93 1009.7
20260510032320 44 180 0.0 0.0 0.00 0.00 0.33 93 1009.6
20260510031826 44 180 0.0 0.0 0.00 0.00 0.33 93 1009.6
20260510031330 44 179 0.0 0.0 0.00 0.00 0.33 93 1009.7
20260510030841 44 180 0.0 0.0 0.00 0.00 0.33 92 1009.7
20260510030323 44 179 0.0 0.0 0.00 0.00 0.33 92 1009.8
20260510025832 45 180 0.0 0.0 0.00 0.00 0.33 93 1009.7
20260510025354 45 179 0.0 0.0 0.00 0.00 0.33 92 1009.7
20260510024837 45 180 0.0 0.0 0.00 0.00 0.33 93 1009.6
20260510024321 45 180 0.0 0.0 0.00 0.00 0.33 92 1009.5
20260510023826 45 180 0.0 0.0 0.00 0.00 0.33 92 1009.7
20260510023356 46 180 0.0 0.0 0.00 0.00 0.33 93 1009.5
20260510022820 46 180 0.0 0.0 0.00 0.00 0.33 92 1009.6
20260510022323 46 180 0.0 0.0 0.00 0.00 0.33 92 1009.5
20260510021818 46 180 0.0 0.0 0.00 0.00 0.33 92 1009.5
20260510021321 46 180 0.0 0.0 0.00 0.00 0.33 92 1009.6
20260510020822 46 180 0.0 0.0 0.00 0.00 0.33 92 1009.7
20260510020314 47 180 0.0 0.0 0.00 0.00 0.33 92 1009.6
20260510015829 47 179 0.0 0.0 0.00 0.00 0.33 92 1009.6
20260510015334 47 180 0.0 0.0 0.00 0.00 0.33 92 1009.5
20260510014831 47 180 0.0 0.0 0.00 0.00 0.33 92 1009.5
20260510014334 47 180 0.0 0.0 0.00 0.00 0.33 91 1009.5
20260510013819 48 180 0.0 0.0 0.00 0.00 0.33 92 1009.5
20260510013321 48 180 0.0 0.0 0.00 0.00 0.33 92 1009.5
20260510012828 48 179 0.0 0.0 0.00 0.00 0.33 92 1009.4
20260510012333 49 180 0.0 0.0 0.00 0.00 0.33 92 1009.3
20260510011837 49 180 0.0 0.0 0.00 0.00 0.33 91 1009.3
20260510011333 49 180 0.0 0.0 0.00 0.00 0.33 91 1009.2
20260510010839 49 179 0.0 0.0 0.00 0.00 0.33 91 1009.2
20260510010324 49 180 0.0 0.0 0.00 0.00 0.33 91 1009.2
20260510005856 50 179 0.0 0.0 0.00 0.00 0.33 91 1009.2
20260510005331 50 180 0.0 0.0 0.00 0.00 0.33 91 1009.2
20260510004833 51 180 0.0 0.0 0.00 0.00 0.33 91 1008.9
20260510004321 51 179 0.0 0.0 0.00 0.00 0.33 91 1008.9
20260510003824 51 180 0.0 0.0 0.00 0.00 0.33 91 1008.9
20260510003327 51 179 0.0 0.0 0.00 0.00 0.33 90 1009.0
20260510002838 51 179 0.0 0.0 0.00 0.00 0.33 90 1009.0
20260510002344 52 180 0.0 0.0 0.00 0.00 0.33 90 1008.8
20260510001816 52 179 0.0 0.0 0.00 0.00 0.33 90 1008.6
20260510001316 52 179 0.0 0.0 0.00 0.00 0.33 90 1008.6
20260510000820 53 179 0.0 0.0 0.00 0.00 0.33 90 1008.7
20260510000322 53 179 0.0 0.0 0.00 0.00 0.33 89 1008.7
20260509235850 53 194 0.0 0.0 0.00 0.00 0.33 89 1008.6
20260509235327 54 194 0.0 0.0 0.00 0.00 0.33 89 1008.5
20260509234832 54 194 0.0 0.0 0.00 0.00 0.33 89 1008.5
20260509234316 54 194 0.0 0.0 0.00 0.00 0.33 88 1008.4
20260509233845 54 194 0.0 0.0 0.00 0.00 0.33 87 1008.4
20260509233330 55 194 0.0 0.0 0.00 0.00 0.33 87 1008.3
20260509232835 55 194 0.0 0.0 0.00 0.00 0.33 87 1008.3
20260509232315 55 195 0.0 0.0 0.00 0.00 0.33 86 1008.3
20260509231817 55 196 0.0 0.0 0.00 0.00 0.33 86 1008.4
20260509231343 55 200 0.0 0.0 0.00 0.00 0.33 86 1008.3
20260509230817 55 201 0.0 0.0 0.00 0.00 0.33 85 1008.2
20260509230321 56 194 0.0 0.0 0.00 0.00 0.33 86 1008.3
20260509225827 56 188 0.0 0.0 0.00 0.00 0.33 86 1008.4
20260509225331 56 188 0.0 0.0 0.00 0.00 0.33 86 1008.4
20260509224817 56 175 0.0 0.0 0.00 0.00 0.33 85 1008.4
20260509224343 56 184 0.0 0.0 0.00 0.00 0.33 85 1008.4
20260509223819 56 215 0.0 0.0 0.00 0.00 0.33 85 1008.4
20260509223331 57 206 0.0 0.0 0.00 0.00 0.33 85 1008.3
20260509222816 57 193 0.0 0.0 0.00 0.00 0.33 85 1008.4
20260509222327 56 200 0.0 0.0 0.00 0.00 0.33 85 1008.3
20260509221832 56 213 0.0 0.0 0.00 0.00 0.33 85 1008.4
20260509221340 57 213 0.0 0.0 0.00 0.00 0.33 85 1008.4
20260509220816 57 224 0.9 0.0 0.00 0.00 0.33 85 1008.2
20260509220322 57 207 0.9 0.0 0.00 0.00 0.33 84 1008.3
20260509215827 57 192 0.0 0.0 0.00 0.00 0.33 84 1008.3
20260509215332 57 213 0.0 0.0 0.00 0.00 0.33 83 1008.2
20260509214838 58 234 0.0 0.0 0.00 0.00 0.33 83 1008.4
20260509214313 58 308 0.0 0.0 0.00 0.00 0.33 84 1008.4
20260509213818 57 209 0.9 0.0 0.00 0.00 0.33 84 1008.4
20260509213324 57 180 0.9 0.0 0.00 0.00 0.33 85 1008.4
20260509212832 57 232 0.9 0.0 0.00 0.00 0.33 85 1008.4
20260509212316 57 240 0.9 0.0 0.00 0.00 0.33 87 1008.4
20260509211840 57 196 0.0 0.0 0.00 0.00 0.33 90 1008.5
20260509211321 56 215 0.0 0.0 0.00 0.00 0.33 89 1008.6
20260509210826 56 264 0.0 0.0 0.00 0.00 0.33 89 1008.6
20260509210352 56 200 0.0 0.0 0.00 0.00 0.33 88 1008.6
20260509205838 56 206 0.0 0.0 0.00 0.00 0.33 89 1008.7
20260509205341 55 187 0.0 0.0 0.00 0.00 0.33 91 1008.7
20260509204815 55 202 0.0 0.0 0.00 0.00 0.33 90 1008.7
20260509204325 55 206 0.0 0.0 0.00 0.00 0.33 91 1008.7
20260509203850 54 210 0.0 0.0 0.00 0.00 0.32 90 1008.8
20260509203405 54 205 0.9 0.0 0.00 0.00 0.32 90 1008.8
20260509202842 54 199 1.7 0.0 0.00 0.00 0.32 90 1008.8
20260509202313 54 224 0.0 0.0 0.00 0.00 0.32 91 1008.8
20260509201821 54 200 0.0 0.0 0.00 0.00 0.32 91 1008.9
20260509201328 54 184 0.0 0.0 0.00 0.00 0.32 91 1009.0
20260509200830 54 179 0.0 0.0 0.00 0.00 0.32 91 1008.9
20260509200319 54 197 0.0 0.0 0.00 0.00 0.32 91 1008.8
20260509195842 53 194 0.0 0.0 0.00 0.00 0.32 92 1008.9
20260509195317 53 190 0.0 0.0 0.00 0.00 0.32 92 1008.9
20260509194820 53 187 0.0 0.0 0.00 0.00 0.32 91 1008.9
20260509194356 53 196 0.0 0.0 0.00 0.00 0.32 91 1009.1
20260509193858 53 198 0.0 0.0 0.00 0.00 0.32 92 1009.2
20260509193340 53 198 0.0 0.0 0.00 0.00 0.31 91 1009.4
20260509192840 53 195 0.0 0.0 0.00 0.00 0.30 92 1009.4
20260509192333 53 202 0.0 0.0 0.00 0.00 0.30 91 1009.5
20260509191818 53 206 0.0 0.0 0.00 0.00 0.28 91 1009.7
20260509191344 53 207 0.0 0.0 0.00 0.00 0.28 91 1009.9
20260509190830 53 192 0.0 0.0 0.00 0.00 0.27 91 1009.9
20260509190314 53 192 0.0 0.0 0.00 0.00 0.26 91 1010.0
20260509185820 52 186 0.0 0.0 0.00 0.00 0.26 91 1010.1
20260509185322 53 187 0.0 0.0 0.00 0.00 0.25 91 1010.1
20260509184821 53 195 0.0 0.0 0.00 0.00 0.24 91 1010.2
20260509184327 53 188 0.0 0.0 0.00 0.00 0.24 91 1010.1
20260509183835 53 198 0.0 0.0 0.00 0.00 0.23 90 1010.1
20260509183319 53 210 0.0 0.0 0.00 0.00 0.22 91 1010.1
20260509182825 53 201 0.0 0.0 0.00 0.00 0.22 91 1010.1
20260509182328 53 189 0.0 0.0 0.00 0.00 0.21 90 1010.2
20260509181830 53 194 0.0 0.0 0.00 0.00 0.20 90 1010.2
20260509181322 53 198 0.0 0.0 0.00 0.00 0.19 90 1010.1
20260509180828 53 199 0.0 0.0 0.00 0.00 0.19 90 1010.2
20260509180338 53 199 0.0 0.0 0.00 0.00 0.18 90 1010.2
20260509175820 53 200 0.0 0.0 0.00 0.00 0.16 90 1010.2
20260509175323 53 242 0.0 0.0 0.00 0.00 0.15 90 1010.2
20260509174850 53 286 0.0 0.0 0.00 0.00 0.14 90 1010.3
20260509174315 53 199 0.0 0.0 0.00 0.00 0.13 89 1010.4
20260509173816 53 205 0.0 0.0 0.00 0.00 0.12 89 1010.3
20260509173319 53 203 0.0 0.0 0.00 0.00 0.10 90 1010.3
20260509172824 53 202 0.0 0.0 0.00 0.00 0.09 89 1010.6
20260509172336 53 227 0.0 0.0 0.00 0.00 0.08 89 1010.5
20260509171816 53 213 0.0 0.0 0.00 0.00 0.07 88 1010.5
20260509171322 54 203 0.0 0.0 0.00 0.00 0.06 88 1010.5
20260509170829 54 213 0.0 0.0 0.00 0.00 0.05 87 1010.4
20260509170336 54 207 0.0 0.0 0.00 0.00 0.04 87 1010.4
20260509165815 54 203 0.0 0.0 0.00 0.00 0.04 86 1010.5
20260509165323 54 195 0.9 0.0 0.00 0.00 0.04 87 1010.5
20260509164835 55 205 0.9 0.0 0.00 0.00 0.03 85 1010.4
20260509164319 55 196 0.9 0.0 0.00 0.00 0.03 86 1010.4
20260509163815 55 240 0.9 0.0 0.00 0.00 0.03 86 1010.5
20260509163319 55 212 0.9 0.0 0.00 0.00 0.03 85 1010.5
20260509162855 55 214 0.9 0.0 0.00 0.00 0.03 85 1010.5
20260509162340 55 211 0.9 0.0 0.00 0.00 0.03 84 1010.4
20260509161834 56 167 0.9 0.0 0.00 0.00 0.03 83 1010.4
20260509161315 56 234 1.7 0.0 0.00 0.00 0.03 84 1010.4
20260509160825 55 198 0.9 0.0 0.00 0.00 0.03 83 1010.5
20260509160326 56 200 0.9 0.0 0.00 0.00 0.03 83 1010.5
20260509155831 56 267 0.0 0.0 0.00 0.00 0.03 85 1010.6
20260509155337 56 233 0.0 0.0 0.00 0.00 0.03 85 1010.6
20260509154836 55 198 0.9 0.0 0.00 0.00 0.03 85 1010.7
20260509154314 55 219 0.9 0.0 0.00 0.00 0.03 85 1010.8
20260509153850 55 196 0.9 0.0 0.00 0.00 0.03 87 1010.8
20260509153322 54 216 0.9 0.0 0.00 0.00 0.03 87 1010.9
20260509152827 54 205 0.0 0.0 0.00 0.00 0.03 87 1010.8
20260509152331 54 186 0.0 0.0 0.00 0.00 0.03 87 1010.4
20260509151816 54 186 0.0 0.0 0.00 0.00 0.03 86 1010.3
20260509151323 54 186 0.0 0.0 0.00 0.00 0.03 86 1010.4
20260509150828 54 186 0.0 0.0 0.00 0.00 0.03 85 1010.5
20260509150317 54 186 0.0 0.0 0.00 0.00 0.03 86 1010.6
20260509145816 54 186 0.0 0.0 0.00 0.00 0.03 85 1010.6
20260509145353 54 186 0.0 0.0 0.00 0.00 0.03 86 1010.6
20260509144834 53 180 0.0 0.0 0.00 0.00 0.03 85 1010.6
20260509144315 53 180 0.0 0.0 0.00 0.00 0.03 85 1010.7
20260509143821 53 180 0.0 0.0 0.00 0.00 0.02 85 1010.7
20260509143330 54 180 0.0 0.0 0.00 0.00 0.02 86 1010.8
20260509142833 53 180 0.0 0.0 0.00 0.00 0.02 85 1010.8
20260509142338 53 180 0.0 0.0 0.00 0.00 0.02 86 1010.9
20260509141815 53 180 0.0 0.0 0.00 0.00 0.02 86 1010.8
20260509141321 53 180 0.0 0.0 0.00 0.00 0.02 85 1010.8
20260509140845 53 178 0.0 0.0 0.00 0.00 0.02 86 1010.8
20260509140327 53 178 0.0 0.0 0.00 0.00 0.02 84 1010.7
20260509135833 53 178 0.0 0.0 0.00 0.00 0.02 85 1010.6
20260509135318 53 178 0.0 0.0 0.00 0.00 0.02 85 1010.8
20260509134820 53 207 0.0 0.0 0.00 0.00 0.01 85 1010.5
20260509134326 53 206 0.0 0.0 0.00 0.00 0.01 84 1010.5
20260509133828 53 206 0.0 0.0 0.00 0.00 0.01 82 1010.2
20260509133319 53 206 0.0 0.0 0.00 0.00 0.01 83 1010.2
20260509132825 53 207 0.0 0.0 0.00 0.00 0.01 81 1010.4
20260509132331 53 207 0.0 0.0 0.00 0.00 0.01 81 1010.3
20260509131816 53 206 0.0 0.0 0.00 0.00 0.01 82 1010.2
20260509131322 53 142 0.0 0.0 0.00 0.00 0.01 82 1010.5
20260509130827 53 144 0.0 0.0 0.00 0.00 0.01 81 1010.4
20260509130323 53 147 0.0 0.0 0.00 0.00 0.01 82 1010.6
20260509125826 53 146 0.0 0.0 0.00 0.00 0.01 81 1010.6
20260509125328 52 146 0.0 0.0 0.00 0.00 0.01 80 1010.9
20260509124834 52 146 0.0 0.0 0.00 0.00 0.01 80 1010.9
20260509124322 52 146 0.0 0.0 0.00 0.00 0.01 82 1010.8
20260509123827 52 149 0.0 0.0 0.00 0.00 0.01 83 1010.8
20260509123331 52 149 0.0 0.0 0.00 0.00 0.01 83 1011.0
20260509122815 52 150 0.0 0.0 0.00 0.00 0.01 84 1011.0
20260509122326 51 149 0.0 0.0 0.00 0.00 0.01 84 1010.9
20260509121838 51 149 0.0 0.0 0.00 0.00 0.01 85 1011.0
20260509121315 51 150 0.0 0.0 0.00 0.00 0.01 86 1010.9
20260509120822 51 149 0.0 0.0 0.00 0.00 0.01 88 1011.0
20260509120328 50 149 0.0 0.0 0.00 0.00 0.01 89 1010.9
20260509115820 50 149 0.0 0.0 0.00 0.00 0.01 89 1010.9
20260509115326 50 149 0.0 0.0 0.00 0.00 0.01 90 1010.9
20260509114835 50 149 0.0 0.0 0.00 0.00 0.01 91 1010.7
20260509114318 50 149 0.0 0.0 0.00 0.00 0.01 91 1010.6
20260509113845 49 149 0.0 0.0 0.00 0.00 0.01 91 1010.7
20260509113325 49 149 0.0 0.0 0.00 0.00 0.01 91 1010.8
20260509112835 49 149 0.0 0.0 0.00 0.00 0.01 91 1010.8
20260509112345 49 149 0.0 0.0 0.00 0.00 0.01 91 1010.8
20260509111826 49 149 0.0 0.0 0.00 0.00 0.01 91 1010.5
20260509111328 49 149 0.0 0.0 0.00 0.00 0.01 91 1010.4
20260509110832 48 149 0.0 0.0 0.00 0.00 0.01 92 1010.5
20260509110335 48 149 0.0 0.0 0.00 0.00 0.01 92 1010.3
20260509105843 48 149 0.0 0.0 0.00 0.00 0.01 92 1010.7
20260509105337 48 60 0.0 0.0 0.00 0.00 0.01 92 1010.1
20260509104822 48 63 0.0 0.0 0.00 0.00 0.01 91 1010.1
20260509104328 47 63 0.0 0.0 0.00 0.00 0.01 91 1010.2
20260509103831 47 66 0.0 0.0 0.00 0.00 0.01 91 1010.4
20260509103339 47 66 0.0 0.0 0.00 0.00 0.01 91 1010.4
20260509102841 47 65 0.0 0.0 0.00 0.00 0.01 91 1010.4
20260509102345 47 66 0.0 0.0 0.00 0.00 0.01 91 1010.4
20260509101908 47 66 0.0 0.0 0.00 0.00 0.01 91 1010.5
20260509101326 47 66 0.0 0.0 0.00 0.00 0.01 91 1010.6
20260509100833 47 66 0.0 0.0 0.00 0.00 0.01 90 1010.8
20260509100319 47 66 0.0 0.0 0.00 0.00 0.01 90 1010.6
20260509095837 47 65 0.0 0.0 0.00 0.00 0.01 90 1010.6
20260509095321 47 66 0.0 0.0 0.00 0.00 0.01 90 1010.7
20260509094828 47 66 0.0 0.0 0.00 0.00 0.01 90 1010.6
20260509094350 47 66 0.0 0.0 0.00 0.00 0.01 90 1010.6
20260509093834 47 65 0.0 0.0 0.00 0.00 0.01 90 1010.6
20260509093347 47 65 0.0 0.0 0.00 0.00 0.01 90 1010.6
20260509092829 47 65 0.0 0.0 0.00 0.00 0.01 90 1010.5
20260509092325 47 65 0.0 0.0 0.00 0.00 0.01 90 1010.6
20260509091827 47 65 0.0 0.0 0.00 0.00 0.01 90 1010.8
20260509091330 47 65 0.0 0.0 0.00 0.00 0.01 90 1010.8
20260509090836 47 66 0.0 0.0 0.00 0.00 0.01 90 1010.8
20260509090321 47 66 0.0 0.0 0.00 0.00 0.01 90 1010.9
20260509085826 47 65 0.0 0.0 0.00 0.00 0.01 90 1010.9
20260509085330 47 65 0.0 0.0 0.00 0.00 0.01 90 1011.0
20260509084838 47 66 0.0 0.0 0.00 0.00 0.01 90 1010.9
20260509084344 47 67 0.0 0.0 0.00 0.00 0.01 90 1010.9
20260509083851 47 65 0.0 0.0 0.00 0.00 0.01 90 1010.9
20260509083324 47 66 0.0 0.0 0.00 0.00 0.01 89 1011.0
20260509082826 47 66 0.0 0.0 0.00 0.00 0.01 89 1011.0
20260509082329 47 66 0.0 0.0 0.00 0.00 0.01 89 1011.1
20260509081832 47 66 0.0 0.0 0.00 0.00 0.01 88 1011.1
20260509081356 48 67 0.0 0.0 0.00 0.00 0.01 88 1011.2
20260509080838 48 66 0.0 0.0 0.00 0.00 0.01 88 1011.2
20260509080350 48 67 0.0 0.0 0.00 0.00 0.01 88 1011.1
20260509075825 48 67 0.0 0.0 0.00 0.00 0.01 88 1011.1
20260509075329 48 68 0.0 0.0 0.00 0.00 0.01 89 1011.1
20260509074831 47 69 0.0 0.0 0.00 0.00 0.01 90 1011.1
20260509074404 47 78 0.0 0.0 0.00 0.00 0.01 91 1011.2
20260509073837 47 78 0.0 0.0 0.00 0.00 0.01 91 1011.1
20260509073321 47 78 0.0 0.0 0.00 0.00 0.01 91 1011.1
20260509072830 47 78 0.0 0.0 0.00 0.00 0.01 90 1011.3
20260509072335 47 78 0.0 0.0 0.00 0.00 0.01 90 1011.3
20260509071844 47 78 0.0 0.0 0.00 0.00 0.01 90 1011.3
20260509071326 47 78 0.0 0.0 0.00 0.00 0.01 90 1011.3
20260509070830 47 78 0.0 0.0 0.00 0.00 0.01 90 1011.6
20260509070335 47 78 0.0 0.0 0.00 0.00 0.01 90 1011.6
20260509065838 47 78 0.0 0.0 0.00 0.00 0.01 90 1011.6
20260509065344 47 78 0.0 0.0 0.00 0.00 0.01 90 1011.6
20260509064826 47 78 0.0 0.0 0.00 0.00 0.01 90 1011.5
20260509064335 47 78 0.0 0.0 0.00 0.00 0.01 90 1011.3
20260509063836 47 78 0.0 0.0 0.00 0.00 0.01 90 1011.3
20260509063342 48 78 0.0 0.0 0.00 0.00 0.01 90 1011.2
20260509062819 48 78 0.0 0.0 0.00 0.00 0.01 89 1011.2
20260509062325 48 78 0.0 0.0 0.00 0.00 0.01 89 1011.1
20260509061831 47 78 0.0 0.0 0.00 0.00 0.01 89 1011.1
20260509061334 48 78 0.0 0.0 0.00 0.00 0.01 89 1011.2
20260509060821 48 78 0.0 0.0 0.00 0.00 0.01 89 1011.2
20260509060347 48 78 0.0 0.0 0.00 0.00 0.01 89 1011.3
20260509055846 48 78 0.0 0.0 0.00 0.00 0.01 89 1011.2
20260509055321 48 78 0.0 0.0 0.00 0.00 0.01 89 1011.2